Weather History for Sheldon, IA

Change the Weather History Date:

Sunday, January 1, 2012

  Actual Average Record
Temperature  
Mean Temperature 30 °F -  
Max Temperature 33 °F 23 °F 53 °F (1998)
Min Temperature 26 °F 5 °F -28 °F (1974)
Degree Days  
Heating Degree Days 36    
Moisture  
Dew Point 19 °F    
Average Humidity 71    
Maximum Humidity 86    
Minimum Humidity 59    
Precipitation  
Precipitation 0.00 in - - ()
Sea Level Pressure  
Sea Level Pressure 30.20 in    
Wind  
Wind Speed 24 mph (NW)    
Max Wind Speed 36 mph    
Max Gust Speed 47 mph    
Visibility 10 miles    
Events      
Averages and records for this station are not official NWS values.
T = Trace of Precipitation, MM = Missing Value Source: NWS Daily Summary

Daily Weather History Graph

Daily Weather History Graph

Search for Another Location

Airport:

Trip Planner

Search our weather history database for the weather conditions in past years. The results will help you decide how hot, cold, wet, or windy it might be!

Date:

Astronomy

Jan. 01, 2012 Rise Set
Actual Time 7:55 AM CST 4:58 PM CST
Civil Twilight 7:23 AM CST 5:30 PM CST
Nautical Twilight 6:47 AM CST 6:06 PM CST
Astronomical Twilight 6:12 AM CST 6:41 PM CST
Moon 11:53 AM CST (1/1) 12:45 AM CST (1/1)
Length of Visible Light 10h 07m
Length of Day
9h 02m
First Quarter, 55% of the Moon is Illuminated
Jan 1
First Quarter
Jan 9
Full
Jan 16
Last Quarter
Jan 23
New
Jan 30
First Quarter

Hourly Weather History & Observations

Time (CST) Temp. Windchill Dew Point Humidity Pressure Visibility Wind Dir Wind Speed Gust Speed Precip Events Conditions
12:15 AM 33.8 °F 21.3 °F 28.4 °F 81% 29.92 in 10.0 mi NNW 24.2 mph 34.5 mph N/A   Overcast
12:55 AM 30.2 °F 17.1 °F 24.8 °F 80% 29.96 in 10.0 mi NNW 21.9 mph 35.7 mph N/A   Clear
1:15 AM 30.2 °F 14.9 °F 24.8 °F 80% 29.96 in 10.0 mi NNW 31.1 mph 39.1 mph N/A   Clear
1:35 AM 30.2 °F 16.2 °F 24.8 °F 80% 29.98 in 10.0 mi NNW 25.3 mph 36.8 mph N/A   Clear
1:55 AM 28.4 °F 14.7 °F 24.8 °F 86% 30.00 in 10.0 mi NNW 21.9 mph 27.6 mph N/A   Clear
2:15 AM 28.4 °F 13.5 °F 24.8 °F 86% 30.03 in 10.0 mi NNW 26.5 mph 33.4 mph N/A   Clear
2:35 AM 28.4 °F 13.8 °F 24.8 °F 86% 30.04 in 10.0 mi NNW 25.3 mph 33.4 mph N/A   Clear
2:55 AM 28.4 °F 15.4 °F 23.0 °F 80% 30.06 in 10.0 mi NNW 19.6 mph 28.8 mph N/A   Clear
3:15 AM 28.4 °F 14.4 °F 23.0 °F 80% 30.06 in 10.0 mi NNW 23.0 mph 26.5 mph N/A   Clear
3:35 AM 28.4 °F 16.2 °F 21.2 °F 74% 30.08 in 10.0 mi NNW 17.3 mph 32.2 mph N/A   Clear
3:55 AM 26.6 °F 13.8 °F 21.2 °F 80% 30.09 in 10.0 mi NW 17.3 mph 26.5 mph N/A   Clear
4:15 AM 26.6 °F 13.8 °F 21.2 °F 80% 30.10 in 10.0 mi NW 17.3 mph 23.0 mph N/A   Clear
4:35 AM 26.6 °F 13.8 °F 21.2 °F 80% 30.11 in 10.0 mi NNW 17.3 mph 25.3 mph N/A   Clear
4:55 AM 26.6 °F 12.7 °F 21.2 °F 80% 30.13 in 10.0 mi NW 20.7 mph 26.5 mph N/A   Clear
5:15 AM 26.6 °F 13.8 °F 21.2 °F 80% 30.13 in 10.0 mi NW 17.3 mph 25.3 mph N/A   Clear
5:35 AM 26.6 °F 14.3 °F 19.4 °F 74% 30.14 in 10.0 mi NW 16.1 mph - N/A   Clear
5:55 AM 26.6 °F 14.3 °F 19.4 °F 74% 30.15 in 10.0 mi NW 16.1 mph 23.0 mph N/A   Clear
6:15 AM 26.6 °F 14.7 °F 19.4 °F 74% 30.16 in 10.0 mi NW 15.0 mph 19.6 mph N/A   Clear
6:35 AM 26.6 °F 13.1 °F 19.4 °F 74% 30.16 in 10.0 mi NW 19.6 mph 25.3 mph N/A   Clear
6:55 AM 26.6 °F 12.7 °F 19.4 °F 74% 30.17 in 10.0 mi NW 20.7 mph 28.8 mph N/A   Clear
7:15 AM 26.6 °F 13.1 °F 19.4 °F 74% 30.18 in 10.0 mi NW 19.6 mph 25.3 mph N/A   Clear
7:35 AM 26.6 °F 13.4 °F 17.6 °F 69% 30.18 in 10.0 mi NW 18.4 mph 25.3 mph N/A   Clear
7:55 AM 26.6 °F 14.7 °F 17.6 °F 69% 30.19 in 10.0 mi NW 15.0 mph - N/A   Clear
8:15 AM 26.6 °F 14.3 °F 17.6 °F 69% 30.20 in 10.0 mi WNW 16.1 mph 20.7 mph N/A   Clear
8:35 AM 26.6 °F 13.4 °F 17.6 °F 69% 30.20 in 10.0 mi WNW 18.4 mph 24.2 mph N/A   Clear
8:55 AM 26.6 °F 12.4 °F 17.6 °F 69% 30.21 in 10.0 mi NW 21.9 mph 26.5 mph N/A   Clear
9:15 AM 28.4 °F 15.4 °F 17.6 °F 64% 30.22 in 10.0 mi NW 19.6 mph 29.9 mph N/A   Clear
9:35 AM 28.4 °F 14.1 °F 17.6 °F 64% 30.23 in 10.0 mi NW 24.2 mph 32.2 mph N/A   Clear
9:55 AM 28.4 °F 14.7 °F 19.4 °F 69% 30.24 in 10.0 mi NW 21.9 mph 27.6 mph N/A   Clear
10:15 AM 30.2 °F 17.8 °F 19.4 °F 64% 30.24 in 10.0 mi NW 19.6 mph 33.4 mph N/A   Clear
10:35 AM 30.2 °F 16.5 °F 19.4 °F 64% 30.24 in 10.0 mi NW 24.2 mph 34.5 mph N/A   Clear
10:55 AM 30.2 °F 14.3 °F 17.6 °F 60% 30.25 in 10.0 mi NW 34.5 mph 46.0 mph N/A   Clear
11:15 AM 30.2 °F 14.9 °F 17.6 °F 60% 30.26 in 10.0 mi NW 31.1 mph 43.7 mph N/A   Scattered Clouds
11:35 AM 28.4 °F 12.0 °F 15.8 °F 59% 30.26 in 10.0 mi NW 33.4 mph 47.2 mph N/A   Mostly Cloudy
11:55 AM 28.4 °F 12.3 °F 17.6 °F 64% 30.26 in 10.0 mi NW 32.2 mph 43.7 mph N/A   Overcast
12:15 PM 28.4 °F 11.8 °F 17.6 °F 64% 30.26 in 10.0 mi NNW 34.5 mph 42.6 mph N/A   Overcast
12:35 PM 28.4 °F 12.0 °F 17.6 °F 64% 30.26 in 10.0 mi NW 33.4 mph 42.6 mph N/A   Overcast
12:55 PM 28.4 °F 12.3 °F 17.6 °F 64% 30.26 in 10.0 mi NNW 32.2 mph 40.3 mph N/A   Overcast
1:15 PM 28.4 °F 12.3 °F 17.6 °F 64% 30.27 in 10.0 mi NW 32.2 mph 40.3 mph N/A   Mostly Cloudy
1:35 PM 28.4 °F 11.6 °F 17.6 °F 64% 30.27 in 10.0 mi NW 35.7 mph 41.4 mph N/A   Mostly Cloudy
1:55 PM 28.4 °F 12.0 °F 17.6 °F 64% 30.28 in 10.0 mi NW 33.4 mph 43.7 mph N/A   Overcast
2:15 PM 28.4 °F 13.3 °F 17.6 °F 64% 30.29 in 10.0 mi NW 27.6 mph 46.0 mph N/A   Mostly Cloudy
2:35 PM 28.4 °F 12.0 °F 17.6 °F 64% 30.30 in 10.0 mi NW 33.4 mph 41.4 mph N/A   Mostly Cloudy
2:55 PM 28.4 °F 12.5 °F 17.6 °F 64% 30.32 in 10.0 mi NW 31.1 mph 40.3 mph N/A   Mostly Cloudy
3:15 PM 28.4 °F 12.3 °F 17.6 °F 64% 30.33 in 10.0 mi NW 32.2 mph 39.1 mph N/A   Mostly Cloudy
3:35 PM 26.6 °F 10.0 °F 17.6 °F 69% 30.34 in 10.0 mi NW 31.1 mph 39.1 mph N/A   Mostly Cloudy
3:55 PM 28.4 °F 12.3 °F 17.6 °F 64% 30.37 in 10.0 mi NW 32.2 mph 39.1 mph N/A   Mostly Cloudy
4:15 PM 26.6 °F 10.6 °F 17.6 °F 69% 30.37 in 10.0 mi NW 28.8 mph 36.8 mph N/A   Scattered Clouds
4:35 PM 26.6 °F 11.4 °F 17.6 °F 69% 30.38 in 10.0 mi NW 25.3 mph 32.2 mph N/A   Clear
4:55 PM 26.6 °F 12.4 °F 17.6 °F 69% 30.39 in 10.0 mi NW 21.9 mph 29.9 mph N/A   Clear
5:35 PM 26.6 °F 13.4 °F 17.6 °F 69% 30.40 in 10.0 mi NW 18.4 mph - N/A   Clear
5:55 PM 26.6 °F 12.4 °F 15.8 °F 64% 30.41 in 10.0 mi NW 21.9 mph 27.6 mph N/A   Clear
6:15 PM 26.6 °F 12.7 °F 15.8 °F 64% 30.42 in 10.0 mi NW 20.7 mph 26.5 mph N/A   Clear
6:35 PM 24.8 °F 11.5 °F 17.6 °F 74% 30.43 in 10.0 mi NW 17.3 mph 24.2 mph N/A   Clear
6:55 PM 24.8 °F 11.9 °F 17.6 °F 74% 30.43 in 10.0 mi NW 16.1 mph 21.9 mph N/A   Clear
7:15 PM 24.8 °F 11.9 °F 17.6 °F 74% 30.44 in 10.0 mi NW 16.1 mph 23.0 mph N/A   Clear
7:35 PM 24.8 °F 12.4 °F 17.6 °F 74% 30.44 in 10.0 mi NW 15.0 mph 21.9 mph N/A   Clear
7:55 PM 24.8 °F 11.9 °F 17.6 °F 74% 30.45 in 10.0 mi NW 16.1 mph 19.6 mph N/A   Clear
8:15 PM 24.8 °F 11.1 °F 15.8 °F 69% 30.45 in 10.0 mi NW 18.4 mph 24.2 mph N/A   Clear
8:35 PM 24.8 °F 11.5 °F 15.8 °F 69% 30.45 in 10.0 mi NW 17.3 mph 23.0 mph N/A   Clear
8:55 PM 24.8 °F 11.9 °F 15.8 °F 69% 30.46 in 10.0 mi NW 16.1 mph 29.9 mph N/A   Clear
9:15 PM 24.8 °F 11.5 °F 15.8 °F 69% 30.46 in 10.0 mi NW 17.3 mph 27.6 mph N/A   Clear
9:35 PM 23.0 °F 8.7 °F 15.8 °F 74% 30.46 in 10.0 mi NW 18.4 mph - N/A   Clear
9:55 PM 23.0 °F 9.2 °F 15.8 °F 74% 30.46 in 10.0 mi NW 17.3 mph 23.0 mph N/A   Clear
10:15 PM 23.0 °F 8.7 °F 15.8 °F 74% 30.46 in 10.0 mi NW 18.4 mph 25.3 mph N/A   Clear
10:35 PM 23.0 °F 8.3 °F 15.8 °F 74% 30.46 in 10.0 mi NW 19.6 mph 25.3 mph N/A   Clear
11:15 PM 21.2 °F 7.3 °F 15.8 °F 80% 30.45 in 10.0 mi NW 16.1 mph 25.3 mph N/A   Clear
11:35 PM 21.2 °F 6.4 °F 15.8 °F 80% 30.46 in 10.0 mi NW 18.4 mph 25.3 mph N/A   Clear
11:55 PM 21.2 °F 5.6 °F 14.0 °F 74% 30.45 in 10.0 mi NW 20.7 mph 26.5 mph N/A   Clear